# Total inorganic carbon (TCO2) in a unit kg  of seawater measured onboard R/V Mirai (NODC Code: unknown) of the Japan Marine Science and Technology Center (JAMSTEC).,,,,,,,,,,,,,,,,,
# Cruise = MR99-K6 (Tropical Ocean Climate Study),,,,,,,,,,,,,,,,,
# Measured on board by Meteorological Research Institute with an automated coulometric system manufactured by Nippon ANS Co. ,,,,,,,,,,,,,,,,,
"# Batches of Certified Reference Material for TCO2 analysis provided by Dr A. G. Dickson have been used for quality control. Significant offset, if any, has been corrected for.",,,,,,,,,,,,,,,,,
"# Total alkalinity (TA) has been calculated from TCO2, SST, salinity and pCO2 that have been concurrently measured using carbonic acid dissociation constants given by Roy et al., 1993.",,,,,,,,,,,,,,,,,
# Date and Time = UTC,,,,,,,,,,,,,,,,,
"# Quality flag (F); good=2, questionable=3, bad =4, not reported = 5, no data =9",,,,,,,,,,,,,,,,,
#,,,,,,,,,,,,,,,,,
Ship,Cruise,No.,Date,,,Time,,Latitude,Longitude,TCO2,F,TA_calcd,F,SST,F,SSS,F
,,,year,month,day,hour,min,deg,deg,umol/kg,,umol/kg,,degC,,,
Mirai,MR99-K6,1,1999,10,16,5,11,29.61,143.11,1909.2,2,2269.6,2,28.68,2,34.184,2
Mirai,MR99-K6,2,1999,10,16,5,43,29.47,143.14,1908.7,3,2272.6,3,28.69,2,34.251,2
Mirai,MR99-K6,3,1999,10,16,6,41,29.37,143.17,1922.2,2,2276,2,28.42,2,34.345,2
Mirai,MR99-K6,4,1999,10,16,7,13,29.36,143.18,1923.1,2,2277.5,2,28.49,2,34.347,2
Mirai,MR99-K6,5,1999,10,16,8,11,29.17,143.23,1908,2,2265.4,2,28.61,2,34.176,2
Mirai,MR99-K6,6,1999,10,16,8,43,29.03,143.26,1917.9,2,2276.1,2,28.73,2,34.313,2
Mirai,MR99-K6,7,1999,10,16,9,40,28.78,143.31,1930.4,2,2288.4,2,28.85,2,34.516,2
Mirai,MR99-K6,8,1999,10,16,10,13,28.64,143.34,1930.2,2,2286.3,2,28.72,2,34.492,2
Mirai,MR99-K6,9,1999,10,16,11,10,28.39,143.4,1933.7,2,2291.4,2,28.83,2,34.528,2
Mirai,MR99-K6,10,1999,10,16,11,43,28.26,143.43,1931.1,2,2284.8,2,28.49,2,34.511,2
Mirai,MR99-K6,11,1999,10,16,12,40,28.01,143.49,1931.6,2,2288.1,2,28.51,2,34.492,2
Mirai,MR99-K6,12,1999,10,16,13,13,27.87,143.5,1931.5,2,2285.8,2,28.36,2,34.486,2
Mirai,MR99-K6,13,1999,10,16,14,9,27.63,143.52,1927.9,2,2288.1,2,28.62,2,34.506,2
Mirai,MR99-K6,14,1999,10,16,14,42,27.49,143.53,1918.8,2,2285.1,2,28.64,2,34.44,2
Mirai,MR99-K6,15,1999,10,16,15,39,27.24,143.55,1920.3,2,2288.9,2,28.77,2,34.513,2
Mirai,MR99-K6,16,1999,10,16,16,12,27.1,143.55,1920.9,2,2289.8,2,28.75,2,34.528,2
Mirai,MR99-K6,17,1999,10,16,17,9,26.86,143.57,1922.7,2,2290.8,2,28.75,2,34.521,2
Mirai,MR99-K6,18,1999,10,16,17,42,26.72,143.59,1921.6,2,2288.6,2,28.6,2,34.527,2
Mirai,MR99-K6,19,1999,10,16,18,38,26.48,143.6,1922.1,2,2289.8,2,28.57,2,34.519,2
Mirai,MR99-K6,20,1999,10,16,20,8,26.1,143.64,1922.2,2,2289.1,2,28.71,2,34.51,2
Mirai,MR99-K6,21,1999,10,16,20,41,25.96,143.65,1913.2,2,2283.7,2,28.75,2,34.412,2
Mirai,MR99-K6,22,1999,10,16,21,38,25.71,143.67,1910.6,2,2284.8,2,28.88,2,34.451,2
Mirai,MR99-K6,23,1999,10,16,22,11,25.57,143.68,1908.8,2,2282.9,2,28.79,2,34.431,2
Mirai,MR99-K6,24,1999,10,16,23,8,25.32,143.7,1914.5,2,2292,2,28.85,2,34.531,2
Mirai,MR99-K6,25,1999,10,16,23,40,25.18,143.71,1912.6,2,2289.3,2,28.86,2,34.495,2
Mirai,MR99-K6,26,1999,10,17,0,38,24.92,143.72,1913,2,2291.4,2,29.02,2,34.506,2
Mirai,MR99-K6,27,1999,10,17,1,10,24.78,143.73,1915.4,2,2294.6,2,29.06,2,34.597,2
Mirai,MR99-K6,28,1999,10,17,5,11,23.69,143.81,1918.7,2,2289.9,2,29.14,2,34.543,2
Mirai,MR99-K6,29,1999,10,17,5,43,23.55,143.82,1919.6,2,2295.7,2,29.28,2,34.618,2
Mirai,MR99-K6,30,1999,10,17,6,41,23.3,143.84,1931.2,2,2304.8,2,29.4,2,34.787,2
Mirai,MR99-K6,31,1999,10,17,7,13,23.16,143.86,1934.7,2,2306.2,2,29.27,2,34.801,2
Mirai,MR99-K6,32,1999,10,17,8,11,22.9,143.89,1930.6,2,2302.2,2,29.18,2,34.728,2
Mirai,MR99-K6,33,1999,10,17,8,43,22.76,143.9,1926.3,2,2298.9,2,29.04,2,34.685,2
Mirai,MR99-K6,34,1999,10,17,9,40,22.51,143.93,1919.7,2,2295.5,2,29.04,2,34.626,2
Mirai,MR99-K6,35,1999,10,17,10,13,22.36,143.94,1910,2,2286.1,2,28.93,2,34.49,2
Mirai,MR99-K6,36,1999,10,17,11,10,22.1,143.94,1908.9,2,2286.6,2,28.92,2,34.471,2
Mirai,MR99-K6,37,1999,10,17,11,43,21.96,143.95,1905.9,2,2281.7,2,28.87,2,34.413,2
Mirai,MR99-K6,38,1999,10,17,12,40,21.7,143.97,1903.5,3,2280,3,28.98,2,34.374,2
Mirai,MR99-K6,39,1999,10,17,13,13,21.55,143.99,1908.6,2,2285.4,2,28.92,2,34.457,2
Mirai,MR99-K6,40,1999,10,17,14,9,21.3,144,1909,2,2285.7,2,28.86,2,34.438,2
Mirai,MR99-K6,41,1999,10,17,14,42,21.15,144.01,1908.6,2,2287.1,2,28.91,2,34.466,2
Mirai,MR99-K6,42,1999,10,17,15,39,20.9,144.03,1909.2,2,2287.4,2,28.98,2,34.495,2
Mirai,MR99-K6,43,1999,10,17,16,12,20.76,144.04,1910.4,2,2288.4,2,29.05,2,34.512,2
Mirai,MR99-K6,44,1999,10,17,17,9,20.5,144.07,1911.9,2,2294.4,2,29.28,2,34.602,2
Mirai,MR99-K6,45,1999,10,17,17,42,20.36,144.08,1910.5,2,2292.5,2,29.31,2,34.594,2
Mirai,MR99-K6,46,1999,10,17,18,38,20.11,144.09,1909.9,2,2292.4,2,29.31,2,34.581,2
Mirai,MR99-K6,47,1999,10,17,19,11,19.97,144.1,1910.9,2,2293.9,2,29.28,2,34.585,2
Mirai,MR99-K6,48,1999,10,17,20,8,19.72,144.12,1916.6,2,2302,2,29.35,2,34.705,2
Mirai,MR99-K6,49,1999,10,17,20,41,19.58,144.13,1913.3,2,2296.7,2,29.3,2,34.65,2
Mirai,MR99-K6,50,1999,10,17,21,38,19.33,144.16,1910.7,2,2295.1,2,29.38,2,34.612,2
Mirai,MR99-K6,51,1999,10,17,22,11,19.19,144.17,1910.7,2,2294.2,2,29.38,2,34.603,2
Mirai,MR99-K6,52,1999,10,17,23,8,18.95,144.19,1913.7,2,2298.8,2,29.39,2,34.666,2
Mirai,MR99-K6,53,1999,10,17,23,40,18.81,144.2,1922.3,2,2310.1,2,29.53,2,34.82,2
Mirai,MR99-K6,54,1999,10,18,0,38,18.56,144.22,1920.1,2,2309.1,2,29.52,2,34.782,2
Mirai,MR99-K6,55,1999,10,18,3,44,17.76,144.28,1909.1,2,2292.6,2,29.44,2,34.613,2
Mirai,MR99-K6,56,1999,10,18,4,16,17.63,144.28,1911.3,2,2294.7,2,29.48,2,34.635,2
Mirai,MR99-K6,57,1999,10,18,5,14,17.39,144.3,1916.6,2,2299.7,2,29.57,2,34.671,2
Mirai,MR99-K6,58,1999,10,18,5,46,17.26,144.31,1910.1,2,2291.6,2,29.55,2,34.591,2
Mirai,MR99-K6,59,1999,10,18,6,44,17.03,144.33,1908.3,2,2291.7,2,29.52,2,34.564,2
Mirai,MR99-K6,60,1999,10,18,7,16,16.9,144.34,1908.6,2,2291.6,2,29.54,2,34.614,2
Mirai,MR99-K6,61,1999,10,18,8,13,16.68,144.36,1922.3,2,2306,2,29.65,2,34.781,2
Mirai,MR99-K6,62,1999,10,18,8,46,16.56,144.37,1920.3,2,2304.4,2,29.61,2,34.754,2
Mirai,MR99-K6,63,1999,10,18,9,43,16.34,144.38,1921.8,2,2306.7,2,29.63,2,34.776,2
Mirai,MR99-K6,64,1999,10,20,10,11,13.08,143.79,1916.8,3,2288.5,3,29.84,2,34.567,2
Mirai,MR99-K6,65,1999,10,20,10,43,13.03,143.66,1915,3,2286.4,3,29.86,2,34.531,2
Mirai,MR99-K6,66,1999,10,20,11,41,12.92,143.41,1915.2,2,2287.5,2,29.71,2,34.538,2
Mirai,MR99-K6,67,1999,10,20,12,13,12.86,143.28,1915.2,3,2287.4,3,29.86,2,34.555,2
Mirai,MR99-K6,68,1999,10,20,13,11,12.75,143.05,1909.8,2,2279.8,2,29.59,2,34.415,2
Mirai,MR99-K6,69,1999,10,20,13,43,12.69,142.92,1912,3,2281.7,3,29.65,2,34.48,2
Mirai,MR99-K6,70,1999,10,20,14,40,12.59,142.69,1914.5,2,2284.9,2,29.78,2,34.496,2
Mirai,MR99-K6,71,1999,10,20,15,13,12.52,142.55,1912.9,2,2282.4,2,29.76,2,34.477,2
Mirai,MR99-K6,72,1999,10,20,16,10,12.41,142.32,1916,2,2286.3,2,29.81,2,34.532,2
Mirai,MR99-K6,73,1999,10,20,16,43,12.35,142.18,1916.9,2,2287.2,2,29.83,2,34.536,2
Mirai,MR99-K6,74,1999,10,20,17,40,12.25,141.95,1919.8,2,2290.5,2,29.82,2,34.572,2
Mirai,MR99-K6,75,1999,10,20,18,13,12.19,141.81,1919.9,2,2290.1,2,29.8,2,34.578,2
Mirai,MR99-K6,76,1999,10,20,19,9,12.08,141.58,1917.9,2,2287.8,2,29.84,2,34.558,2
Mirai,MR99-K6,77,1999,10,20,19,42,12.02,141.45,1916,2,2285.6,2,29.77,2,34.525,2
Mirai,MR99-K6,78,1999,10,20,20,39,11.91,141.22,1916,2,2285,2,29.73,2,34.511,2
Mirai,MR99-K6,79,1999,10,20,21,12,11.85,141.09,1917.8,2,2287.6,2,29.75,2,34.547,2
Mirai,MR99-K6,80,1999,10,20,22,9,11.71,140.88,1913.1,2,2282.4,2,29.75,2,34.459,2
Mirai,MR99-K6,81,1999,10,20,22,42,11.62,140.76,1911.7,2,2279.8,2,29.79,2,34.401,2
Mirai,MR99-K6,82,1999,10,20,23,38,11.48,140.58,1899.2,2,2264.7,2,29.75,2,34.213,2
Mirai,MR99-K6,83,1999,10,21,0,11,11.41,140.45,1902.1,2,2266.5,2,29.76,2,34.249,2
Mirai,MR99-K6,84,1999,10,21,1,41,11.21,140.1,1901.4,2,2267,2,29.99,2,34.239,2
Mirai,MR99-K6,85,1999,10,21,2,38,11.08,139.88,1906.2,2,2272.7,2,29.77,2,34.307,2
Mirai,MR99-K6,86,1999,10,21,3,11,11,139.75,1909,2,2278,3,29.92,2,34.355,2
Mirai,MR99-K6,87,1999,10,21,4,8,10.87,139.54,1909.4,2,2276.8,2,30.31,2,34.347,2
Mirai,MR99-K6,88,1999,10,21,4,40,10.79,139.41,1917,2,2287.7,2,30.39,2,34.52,2
Mirai,MR99-K6,89,1999,10,21,7,43,10.36,138.69,1905.3,2,2274.7,2,30.4,2,34.379,2
Mirai,MR99-K6,90,1999,10,21,10,11,10.1,138.08,1898.7,2,2267.5,2,30.31,2,34.252,2
Mirai,MR99-K6,91,1999,10,21,10,44,10.02,137.95,1904,2,2273.2,2,30.22,2,34.367,2
Mirai,MR99-K6,92,1999,10,21,11,40,9.87,137.74,1895.8,2,2263.2,2,30.25,2,34.203,2
Mirai,MR99-K6,93,1999,10,21,12,13,9.79,137.63,1894.7,2,2259.7,2,30.27,2,34.178,2
Mirai,MR99-K6,94,1999,10,21,13,10,9.64,137.42,1891.5,3,2256.3,3,30.08,2,34.116,2
Mirai,MR99-K6,95,1999,10,21,13,43,9.56,137.31,1891.2,2,2255.4,2,30.09,2,34.115,2
Mirai,MR99-K6,96,1999,10,21,15,13,9.32,137.01,1864.6,2,2225.3,2,29.87,2,33.633,2
Mirai,MR99-K6,97,1999,10,21,16,9,9.07,136.99,1887,2,2253.9,2,30.1,2,34.056,2
Mirai,MR99-K6,98,1999,10,21,16,42,8.92,136.99,1889.7,2,2255.7,2,30.08,2,34.103,2
Mirai,MR99-K6,99,1999,10,21,17,40,8.66,136.99,1897,3,2263.8,3,29.96,2,34.213,2
Mirai,MR99-K6,100,1999,10,21,18,12,8.52,137,1881.8,2,2245.1,2,29.95,2,33.949,2
Mirai,MR99-K6,101,1999,10,21,19,42,8.12,137,1853.4,2,2212.2,2,29.76,2,33.423,2
Mirai,MR99-K6,102,1999,10,21,20,39,8,137.01,1849.3,2,2209.3,2,29.75,2,33.354,2
Mirai,MR99-K6,103,1999,10,21,21,11,8,137,1853.5,2,2214.2,2,29.77,2,33.44,2
Mirai,MR99-K6,104,1999,10,21,22,9,8,137,1857.2,3,2217.2,3,29.85,2,33.518,2
Mirai,MR99-K6,105,1999,10,21,23,39,7.93,136.79,1872,2,2235.9,2,29.96,2,33.778,2
Mirai,MR99-K6,106,1999,10,22,0,11,7.9,136.66,1869.2,3,2232,3,29.86,2,33.726,2
Mirai,MR99-K6,107,1999,10,22,1,8,7.9,136.41,1867.4,2,2230,2,29.86,2,33.702,2
Mirai,MR99-K6,108,1999,10,22,1,41,7.85,136.34,1867.8,2,2229.1,2,29.9,2,33.699,2
Mirai,MR99-K6,109,1999,10,22,2,38,7.87,136.4,1866.2,3,2228.8,3,29.91,2,33.689,2
Mirai,MR99-K6,110,1999,10,22,3,11,7.85,136.52,1865.2,3,2225.9,3,30.06,2,33.648,2
Mirai,MR99-K6,111,1999,10,22,7,11,7.68,136.8,1858.5,3,2218.4,3,30.36,2,33.545,2
Mirai,MR99-K6,112,1999,10,22,7,43,7.66,136.93,1866.1,3,2226.7,3,30.59,2,33.706,2
Mirai,MR99-K6,113,1999,10,22,8,41,7.62,136.72,1857.6,2,2218,2,30.08,2,33.53,2
Mirai,MR99-K6,114,1999,10,22,9,13,7.62,136.58,1855.8,2,2217.5,2,30.57,2,33.465,2
Mirai,MR99-K6,115,1999,10,22,10,11,7.56,136.79,1857.4,2,2219.2,2,30.4,2,33.513,2
Mirai,MR99-K6,116,1999,10,22,10,44,7.56,136.93,1863.5,2,2223.6,2,30.23,2,33.649,2
Mirai,MR99-K6,117,1999,10,22,11,40,7.3,136.97,1857.6,2,2218.3,2,30.3,2,33.52,2
Mirai,MR99-K6,118,1999,10,22,12,13,7.18,137.02,1861.6,2,2223.3,2,30.31,2,33.561,2
Mirai,MR99-K6,119,1999,10,22,13,10,7,137,1857.2,2,2215.6,3,30.14,2,33.473,2
Mirai,MR99-K6,120,1999,10,22,13,43,7,137,1853.8,2,2213.3,3,30,2,33.443,2
Mirai,MR99-K6,121,1999,10,22,14,40,6.77,137,1855.5,2,2215.7,2,29.95,2,33.463,2
Mirai,MR99-K6,122,1999,10,22,15,13,6.63,137,1857.9,2,2219.2,2,30.03,2,33.515,2
Mirai,MR99-K6,123,1999,10,22,16,9,6.38,137,1858.5,2,2220.4,2,30.07,2,33.524,2
Mirai,MR99-K6,124,1999,10,22,16,42,6.24,137,1858.5,2,2220.1,2,30.13,2,33.52,2
Mirai,MR99-K6,125,1999,10,22,17,40,6.02,137.02,1860.8,2,2223.4,2,30.25,2,33.576,2
Mirai,MR99-K6,126,1999,10,22,18,12,6,137,1862.1,2,2224.2,2,30.17,2,33.59,2
Mirai,MR99-K6,127,1999,10,22,19,10,5.94,136.99,1861,2,2223.2,2,30.09,2,33.554,2
Mirai,MR99-K6,128,1999,10,22,19,42,5.8,137.01,1858.5,2,2219.3,2,29.98,2,33.491,2
Mirai,MR99-K6,129,1999,10,22,20,39,5.56,137.04,1870.1,2,2233.6,2,30.03,2,33.699,2
Mirai,MR99-K6,130,1999,10,22,21,11,5.42,137.06,1864.5,2,2226.5,2,29.92,2,33.648,2
Mirai,MR99-K6,131,1999,10,22,22,9,5.17,137.08,1865.4,2,2228.5,2,29.91,2,33.635,2
Mirai,MR99-K6,132,1999,10,22,22,41,5.02,137.09,1865.2,2,2228.6,2,29.92,2,33.655,2
Mirai,MR99-K6,133,1999,10,22,23,39,4.97,137.1,1866,2,2229.2,2,29.93,2,33.665,2
Mirai,MR99-K6,134,1999,10,23,0,11,4.97,137.2,1867.9,2,2231.5,2,29.91,2,33.693,2
Mirai,MR99-K6,135,1999,10,23,1,8,4.97,137.41,1858,2,2219.9,2,29.9,2,33.488,2
Mirai,MR99-K6,136,1999,10,23,1,41,4.97,137.49,1867.6,2,2231.7,2,30.23,2,33.683,2
Mirai,MR99-K6,137,1999,10,23,2,38,4.9,137.55,1862,2,2224.2,2,30.06,2,33.577,2
Mirai,MR99-K6,138,1999,10,23,3,11,4.9,137.4,1865,2,2226,2,29.97,2,33.643,2
Mirai,MR99-K6,139,1999,10,23,7,11,4.77,137.43,1868.7,2,2231.9,2,30.09,2,33.731,2
Mirai,MR99-K6,140,1999,10,23,7,43,4.77,137.29,1869.8,2,2235.9,2,30.11,2,33.796,2
Mirai,MR99-K6,141,1999,10,23,8,41,4.67,137.15,1865,2,2229.9,3,30.04,2,33.651,2
Mirai,MR99-K6,142,1999,10,23,9,13,4.53,137.19,1854.7,2,2218.2,3,30.05,2,33.471,2
Mirai,MR99-K6,143,1999,10,23,10,11,4.27,137.26,1867.4,2,2233.2,2,30.12,2,33.708,2
Mirai,MR99-K6,144,1999,10,23,10,44,4.13,137.3,1865,2,2227.7,2,30.08,2,33.666,2
Mirai,MR99-K6,145,1999,10,23,11,40,4,137.33,1861,2,2224.8,2,29.75,2,33.585,2
Mirai,MR99-K6,146,1999,10,23,12,13,3.99,137.34,1860,2,2223,2,29.76,2,33.584,2
Mirai,MR99-K6,147,1999,10,23,13,10,3.79,137.38,1860.6,2,2222.4,2,29.82,2,33.572,2
Mirai,MR99-K6,148,1999,10,23,13,43,3.64,137.41,1864.2,2,2228.2,2,29.89,2,33.647,2
Mirai,MR99-K6,149,1999,10,23,14,40,3.37,137.47,1881,2,2245.3,2,30.09,2,33.92,2
Mirai,MR99-K6,150,1999,10,23,15,13,3.23,137.51,1888.5,2,2256.4,2,30,2,34.038,2
Mirai,MR99-K6,151,1999,10,23,16,9,3.01,137.54,1873.3,2,2240.8,2,29.89,2,33.754,2
Mirai,MR99-K6,152,1999,10,23,16,42,3,137.55,1867.1,2,2227.9,3,29.77,2,33.683,2
Mirai,MR99-K6,153,1999,10,23,17,40,2.99,137.57,1876.8,2,2244.5,2,29.99,2,33.836,2
Mirai,MR99-K6,154,1999,10,23,18,12,2.99,137.58,1876.1,2,2242.6,2,29.96,2,33.825,2
Mirai,MR99-K6,155,1999,10,23,19,10,3,137.6,1878.1,2,2244.9,2,29.93,2,33.842,2
Mirai,MR99-K6,156,1999,10,23,19,42,3,137.61,1877.5,3,2244.4,3,29.93,2,33.848,2
Mirai,MR99-K6,157,1999,10,23,20,39,3.01,137.63,1881,2,2248.5,2,29.96,2,33.889,2
Mirai,MR99-K6,158,1999,10,23,21,11,3,137.61,1879.4,3,2245.1,3,29.92,2,33.874,2
Mirai,MR99-K6,159,1999,10,23,22,9,3,137.55,1878.4,3,2245.2,3,29.92,2,33.865,2
Mirai,MR99-K6,160,1999,10,23,22,41,2.99,137.55,1879.3,3,2248.1,3,29.91,2,33.861,2
Mirai,MR99-K6,161,1999,10,23,23,39,2.76,137.59,1875.8,3,2245.2,3,29.99,2,33.816,2
Mirai,MR99-K6,162,1999,10,24,0,11,2.62,137.63,1883.1,3,2252.7,3,30.03,2,33.97,2
Mirai,MR99-K6,163,1999,10,24,1,8,2.37,137.68,1884.7,2,2254.1,2,30.07,2,33.946,2
Mirai,MR99-K6,164,1999,10,24,1,41,2.23,137.71,1883.2,3,2249.8,3,30.26,2,33.937,2
Mirai,MR99-K6,165,1999,10,24,2,38,2.13,137.9,1886.1,3,2255.2,3,30.36,2,33.983,2
Mirai,MR99-K6,166,1999,10,24,3,11,2.13,138.04,1879.1,3,2246.5,3,30.21,2,33.887,2
Mirai,MR99-K6,167,1999,10,24,8,45,1.96,138.27,1882.3,2,2251.8,2,30.47,2,33.976,2
Mirai,MR99-K6,168,1999,10,24,9,17,1.93,138.14,1883.1,2,2253.1,2,30.51,2,33.998,2
Mirai,MR99-K6,169,1999,10,24,10,15,1.93,137.89,1882.7,2,2251.8,2,30.35,2,33.977,2
Mirai,MR99-K6,170,1999,10,24,10,47,1.93,137.75,1881.3,2,2250.7,2,30.19,2,33.974,2
Mirai,MR99-K6,171,1999,10,24,11,45,1.87,137.92,1882.3,2,2252.2,2,30.32,2,33.971,2
Mirai,MR99-K6,172,1999,10,24,12,18,1.87,138.06,1882.9,2,2253.1,2,30.24,2,33.985,2
Mirai,MR99-K6,173,1999,10,24,13,14,1.9,138.24,1884,2,2255.2,2,30.23,2,34,2
Mirai,MR99-K6,174,1999,10,24,13,47,1.99,138.13,1886.3,2,2256.8,2,30.13,2,34.025,2
Mirai,MR99-K6,175,1999,10,24,14,44,2.06,138.06,1881.4,2,2250,2,30.17,2,33.957,2
Mirai,MR99-K6,176,1999,10,24,15,17,2.05,138.07,1881.8,2,2250.5,2,30.16,2,33.953,2
Mirai,MR99-K6,177,1999,10,24,16,14,2.04,138.08,1882.8,2,2251.8,2,30.13,2,33.96,2
Mirai,MR99-K6,178,1999,10,24,16,47,2.04,138.09,1883.2,2,2251.8,2,30.1,2,33.963,2
Mirai,MR99-K6,179,1999,10,24,17,43,2.02,138.11,1882.5,2,2251,2,30.12,2,33.955,2
Mirai,MR99-K6,180,1999,10,24,18,16,2.03,138.11,1882.2,2,2250.4,2,30.12,2,33.952,2
Mirai,MR99-K6,181,1999,10,24,19,14,2.05,138.06,1886.3,2,2254.3,2,29.97,2,34.012,2
Mirai,MR99-K6,182,1999,10,24,19,46,2.05,138.07,1885.9,2,2254.5,2,29.99,2,33.995,2
Mirai,MR99-K6,183,1999,10,24,20,44,2.04,138.09,1885.7,2,2254.7,2,29.98,2,33.997,2
Mirai,MR99-K6,184,1999,10,24,21,16,2.03,138.1,1888.6,2,2257.6,2,29.95,2,34.038,2
Mirai,MR99-K6,185,1999,10,24,22,13,2.03,138.09,1885.4,2,2254.1,2,29.95,2,33.994,2
Mirai,MR99-K6,186,1999,10,24,22,45,2,138.02,1885.5,2,2254.3,2,29.95,2,33.994,2
Mirai,MR99-K6,187,1999,10,25,14,45,2.01,138.11,1874.6,2,2239.6,2,30.17,2,34.033,2
Mirai,MR99-K6,188,1999,10,25,15,17,2.01,138.12,1887,2,2255.1,2,30.15,2,34.03,2
Mirai,MR99-K6,189,1999,10,25,16,15,2.02,138.13,1886.6,2,2254.9,2,30.09,2,34.017,2
Mirai,MR99-K6,190,1999,10,25,16,47,2.02,138.13,1885.8,2,2253.3,2,30.1,2,34.011,2
Mirai,MR99-K6,191,1999,10,25,17,45,2.01,138.14,1885.1,2,2252.8,2,30.04,2,34.007,2
Mirai,MR99-K6,192,1999,10,25,18,18,2.01,138.15,1885.5,2,2253.2,2,30.12,2,34.012,2
Mirai,MR99-K6,193,1999,10,25,19,14,1.94,138.14,1884.3,2,2251.5,2,30.06,2,33.973,2
Mirai,MR99-K6,194,1999,10,25,19,47,1.8,138.11,1887,2,2255.1,2,30.05,2,34.031,2
Mirai,MR99-K6,195,1999,10,25,20,44,1.54,138.06,1885.2,2,2255,2,29.97,2,34.013,2
Mirai,MR99-K6,196,1999,10,25,21,17,1.4,138.04,1882,2,2251.5,2,29.96,2,33.961,2
Mirai,MR99-K6,197,1999,10,25,22,14,1.14,138,1879.4,2,2247.6,2,29.91,2,33.898,2
Mirai,MR99-K6,198,1999,10,25,22,47,1,138,1871.8,2,2239.4,2,29.83,2,33.795,2
Mirai,MR99-K6,199,1999,10,25,23,43,0.97,138,1874,2,2244.7,3,29.79,2,33.815,2
Mirai,MR99-K6,200,1999,10,26,0,16,0.83,137.98,1879.5,2,2245.6,2,30.04,2,33.862,2
Mirai,MR99-K6,201,1999,10,26,1,14,0.58,137.89,1885.9,2,2252.1,2,30.07,2,33.965,2
Mirai,MR99-K6,202,1999,10,26,1,46,0.44,137.84,1886.3,2,2254.5,2,30.07,2,33.968,2
Mirai,MR99-K6,203,1999,10,26,2,44,0.19,137.75,1886.5,2,2252.3,2,30.22,2,33.973,2
Mirai,MR99-K6,204,1999,10,26,3,16,0.16,137.86,1889.7,3,2255,3,30.19,2,34.026,2
Mirai,MR99-K6,205,1999,10,26,4,13,0.17,138.08,1893,2,2259.2,2,30.2,2,34.048,2
Mirai,MR99-K6,206,1999,10,26,4,45,0.17,138.21,1894.4,3,2258.6,3,30.31,2,34.089,2
Mirai,MR99-K6,207,1999,10,26,5,43,0.1,138.15,1893.4,2,2258.7,2,30.19,2,34.057,2
Mirai,MR99-K6,208,1999,10,26,6,15,0.1,137.99,1890.5,3,2254.4,3,30.11,2,34.03,2
Mirai,MR99-K6,209,1999,10,26,7,13,0.07,137.75,1890.7,2,2255.4,2,30.13,2,34.038,2
Mirai,MR99-K6,210,1999,10,26,7,45,0.03,137.85,1890.7,3,2254.8,3,30.14,2,34.029,2
Mirai,MR99-K6,211,1999,10,26,8,42,0.03,138.08,1891.6,2,2255.5,2,30.03,2,34.036,2
Mirai,MR99-K6,212,1999,10,26,9,15,0.03,138.2,1897.3,2,2261.3,2,30.06,2,34.124,2
Mirai,MR99-K6,213,1999,10,26,10,12,-0.03,138.18,1899.1,2,2264.1,2,29.98,2,34.153,2
Mirai,MR99-K6,214,1999,10,26,10,45,-0.03,138.02,1895.5,2,2260.3,2,29.94,2,34.1,2
Mirai,MR99-K6,215,1999,10,26,11,42,-0.04,137.76,1894.6,2,2260.8,2,29.99,2,34.072,2
Mirai,MR99-K6,216,1999,10,26,12,15,-0.12,137.82,1894,3,2258.6,3,29.91,2,34.086,2
Mirai,MR99-K6,217,1999,10,26,13,11,-0.12,138.05,1898.2,2,2262.8,2,29.88,2,34.126,2
Mirai,MR99-K6,218,1999,10,26,13,44,-0.12,138.18,1899.1,2,2262.6,2,29.83,2,34.14,2
Mirai,MR99-K6,219,1999,10,27,7,11,0.07,138.02,1898.8,2,2262.6,2,29.77,2,34.15,2
Mirai,MR99-K6,220,1999,10,27,7,43,0.07,138.02,1899.6,2,2262.9,2,29.78,2,34.16,2
Mirai,MR99-K6,221,1999,10,27,9,13,0.08,138.15,1897.1,2,2261.6,2,29.71,2,34.125,2
Mirai,MR99-K6,222,1999,10,27,10,11,0.05,138.38,1915.7,2,2279.8,2,29.78,2,34.409,2
Mirai,MR99-K6,223,1999,10,27,10,44,0.03,138.51,1912.5,2,2275.4,2,29.77,2,34.343,2
Mirai,MR99-K6,224,1999,10,27,11,40,-0.01,138.7,1892.3,2,2253.4,2,29.63,2,33.989,2
Mirai,MR99-K6,225,1999,10,27,12,13,-0.01,138.83,1894.4,2,2254.4,3,29.78,2,34.081,2
Mirai,MR99-K6,226,1999,10,27,13,43,0.01,139.16,1894.7,3,2259.7,3,29.81,2,34.059,2
Mirai,MR99-K6,227,1999,10,27,14,40,-0.01,139.37,1877.2,2,2236.5,2,29.81,2,33.989,2
Mirai,MR99-K6,228,1999,10,27,15,13,-0.01,139.49,1877.8,3,2237.6,3,29.81,2,33.987,2
Mirai,MR99-K6,229,1999,10,27,16,9,0,139.7,1891.4,2,2253.9,2,29.85,2,34.032,2
Mirai,MR99-K6,230,1999,10,27,16,42,0,139.82,1898.2,2,2262.5,2,29.78,2,34.127,2
Mirai,MR99-K6,231,1999,10,27,17,40,0,139.97,1900.6,2,2264.4,2,29.73,2,34.184,2
Mirai,MR99-K6,232,1999,10,27,18,12,0,140.07,1897.9,3,2261.8,3,29.8,2,34.134,2
Mirai,MR99-K6,233,1999,10,27,19,10,0,140.28,1901.2,2,2264.8,2,29.76,2,34.186,2
Mirai,MR99-K6,234,1999,10,27,19,42,0,140.41,1898.5,3,2263.1,3,29.72,2,34.142,2
Mirai,MR99-K6,235,1999,10,27,20,39,0.01,140.53,1902.2,3,2265.5,3,29.72,2,34.198,2
Mirai,MR99-K6,236,1999,10,27,21,11,0,140.65,1909.7,3,2272.3,3,29.76,2,34.264,2
Mirai,MR99-K6,237,1999,10,27,22,9,0,140.86,1910.6,2,2274.3,2,29.74,2,34.325,2
Mirai,MR99-K6,238,1999,10,27,22,41,0,140.98,1913.3,2,2275.1,2,29.73,2,34.335,2
Mirai,MR99-K6,239,1999,10,27,23,39,-0.01,141.12,1922.6,3,2284.5,3,29.65,2,34.487,2
Mirai,MR99-K6,240,1999,10,28,0,11,0,141.24,1928.7,2,2292.3,2,29.66,2,34.565,2
Mirai,MR99-K6,241,1999,10,28,1,8,0,141.44,1926.7,2,2288.6,2,29.54,2,34.559,2
Mirai,MR99-K6,242,1999,10,28,1,41,0.01,141.56,1924.1,2,2286.1,2,29.51,2,34.478,2
Mirai,MR99-K6,243,1999,10,28,2,38,0,141.77,1928.5,3,2289.9,3,29.67,2,34.582,2
Mirai,MR99-K6,244,1999,10,28,3,11,0,141.88,1913.6,3,2272.2,3,29.63,2,34.557,2
Mirai,MR99-K6,245,1999,10,28,7,5,0,142.69,1933.1,2,2295.4,2,29.62,2,34.651,2
Mirai,MR99-K6,246,1999,10,28,7,38,0,142.81,1931.3,2,2291.8,2,29.61,2,34.634,2
Mirai,MR99-K6,247,1999,10,28,8,35,0,143,1920.1,3,2281,3,29.56,2,34.448,2
Mirai,MR99-K6,248,1999,10,28,9,8,0,143.11,1929,2,2290,2,29.64,2,34.602,2
Mirai,MR99-K6,249,1999,10,28,10,6,0,143.33,1935.8,2,2297.5,2,29.69,2,34.669,2
Mirai,MR99-K6,250,1999,10,28,10,38,0,143.45,1928.9,3,2289.5,3,29.62,2,34.582,2
Mirai,MR99-K6,251,1999,10,28,11,35,-0.01,143.66,1932.1,2,2293.3,2,29.56,2,34.602,2
Mirai,MR99-K6,252,1999,10,28,12,7,0,143.78,1930.6,3,2291.1,3,29.55,2,34.606,2
Mirai,MR99-K6,253,1999,10,28,13,5,0,143.99,1934.3,3,2294.4,3,29.58,2,34.658,2
Mirai,MR99-K6,254,1999,10,28,13,37,0,144.11,1933.6,2,2293.4,2,29.57,2,34.648,2
Mirai,MR99-K6,255,1999,10,28,14,35,0,144.33,1939.2,2,2298.7,2,29.59,2,34.712,2
Mirai,MR99-K6,256,1999,10,28,15,7,0,144.45,1939.5,2,2299.7,2,29.59,2,34.709,2
Mirai,MR99-K6,257,1999,10,28,16,4,0,144.66,1933.2,2,2293.7,2,29.54,2,34.634,2
Mirai,MR99-K6,258,1999,10,28,16,36,-0.01,144.78,1937.1,2,2297.3,2,29.48,2,34.642,2
Mirai,MR99-K6,259,1999,10,28,17,34,0,145,1933.3,2,2293.3,2,29.48,2,34.633,2
Mirai,MR99-K6,260,1999,10,28,18,7,0,145.11,1935.5,2,2296.4,2,29.5,2,34.631,2
Mirai,MR99-K6,261,1999,10,28,19,4,0,145.34,1933.9,2,2294.3,2,29.49,2,34.654,2
Mirai,MR99-K6,262,1999,10,28,19,37,0,145.46,1937.1,2,2297,2,29.53,2,34.707,2
Mirai,MR99-K6,263,1999,10,28,20,33,0,145.68,1937.6,2,2298.8,2,29.52,2,34.709,2
Mirai,MR99-K6,264,1999,10,28,21,6,0,145.8,1940.8,3,2302.7,3,29.58,2,34.754,2
Mirai,MR99-K6,265,1999,10,28,22,3,0,146.02,1944.7,3,2306.8,3,29.52,2,34.765,2
Mirai,MR99-K6,266,1999,10,28,22,36,0,146.15,1942.5,3,2303.5,3,29.52,2,34.793,2
Mirai,MR99-K6,267,1999,10,28,23,33,-0.02,146.35,1944.5,2,2306.2,2,29.58,2,34.782,2
Mirai,MR99-K6,268,1999,10,29,0,6,-0.01,146.48,1942.1,2,2301.4,2,29.56,2,34.756,2
Mirai,MR99-K6,269,1999,10,29,1,3,-0.01,146.69,1939.5,3,2299.1,3,29.66,2,34.747,2
Mirai,MR99-K6,270,1999,10,29,1,35,0,146.82,1939.7,2,2298.8,2,29.75,2,34.739,2
Mirai,MR99-K6,271,1999,10,29,2,33,0.01,146.88,1941.8,2,2303.8,2,29.69,2,34.704,2
Mirai,MR99-K6,272,1999,10,29,3,5,-0.02,146.98,1937.9,3,2298.9,3,29.71,2,34.719,2
Mirai,MR99-K6,273,1999,10,29,4,3,-0.05,146.98,1941.6,2,2302.7,2,29.74,2,34.736,2
Mirai,MR99-K6,274,1999,10,29,4,35,-0.04,146.98,1940,2,2300.6,2,29.72,2,34.735,2
Mirai,MR99-K6,275,1999,10,30,7,13,0.08,146.76,1938.8,2,2300.1,2,29.68,2,34.69,2
Mirai,MR99-K6,276,1999,10,30,7,45,0.18,146.77,1938.6,2,2299.5,2,30.03,2,34.715,2
Mirai,MR99-K6,277,1999,10,30,8,43,0.41,146.83,1940.9,2,2301,2,30.09,2,34.727,2
Mirai,MR99-K6,278,1999,10,30,9,15,0.54,146.87,1940.2,3,2300.2,3,30.06,2,34.716,2
Mirai,MR99-K6,279,1999,10,30,10,13,0.78,146.94,1940.6,2,2300.7,2,29.88,2,34.715,2
Mirai,MR99-K6,280,1999,10,30,10,46,0.91,146.97,1939.5,2,2300.4,2,29.93,2,34.702,2
Mirai,MR99-K6,281,1999,10,30,11,42,1.14,147.01,1939.3,2,2301.4,2,30.08,2,34.702,2
Mirai,MR99-K6,282,1999,10,30,12,15,1.29,147.03,1936.7,2,2298.3,2,29.8,2,34.672,2